Weather in Kazanka

Ukraine / Mykolaiv District     47˚50′17″N   32˚49′34″E
temp.,
°C
wind,
m/s
gust,
m/s
humid.,
%
clouds,
%
prec.,
mm/h
press.,
hPa
HPBL,
m
3 december, thu
thu323:00+1˚e489099 0.1 1027296
02:00+2˚e478699 0.2 1026361
05:00+2˚ene4784100 0.0 1026314
08:00+2˚e4889100 0.0 1026331
11:00+4˚ese5888100 0.0 1025439
14:00+5˚ese698398 0.0 1024504
17:00+5˚ese5108798 0.0 1024454
20:00+5˚ese6118799 0.0 1024483
4 december, fri
fri423:00+4˚ese5988100 0.0 1024450
02:00+4˚ese5989100 0.0 1024413
05:00+4˚ese61089100 0.0 1023370
08:00+3˚ese699499 0.0 1024362
11:00+4˚ese6986100 0.0 1024438
14:00+5˚ese6981100 0.0 1023477
17:00+5˚e61180100 0.0 1024548
20:00+3˚ese7148958 0.0 1024464
5 december, sat
sat523:00+2˚ese6129028 0.0 1025440
02:00+2˚e6129337 0.0 1026396
05:00+2˚e6129358 0.0 1026434
08:00+2˚e7108570 0.0 1027529
11:00+3˚e6973100 0.0 1027570
14:00+3˚e797373 0.0 1027628
17:00+2˚e7107491 0.0 1027667
20:00+1˚e5127764 0.0 1029533
6 december, sun
sun623:00e511760 0.0 1029518
02:00−2˚e611620 0.0 1029405
05:00−3˚e612570 0.0 1029416
08:00−3˚e612530 0.0 1030438
11:00e712470 0.0 1030561
14:00+2˚e711480 0.0 1028664
17:00−1˚e613540 0.0 1028532
20:00−1˚e714490 0.0 1029622
7 december, mon
mon723:00−2˚e614540 0.0 1029603
02:00−3˚e714560 0.0 1029570
05:00−3˚e613560 0.0 1029533
08:00−3˚e714610 0.0 1029532
11:00e814520 0.0 1029669
14:00+1˚e813510 0.0 1028716
17:00−1˚e715590 0.0 1027596
20:00−2˚ese815720 0.0 1027705